Time,TemperatureF,DewpointF,PressureIn,WindDirection,WindDirectionDegrees,WindSpeedMPH,WindSpeedGustMPH,Humidity,HourlyPrecipIn,Conditions,Clouds,dailyrainin,SoftwareType,DateUTC
2013-04-18 00:01:00,64.8,59.5,30.14,North,10,0.0,1.0,83,0.00,,,0.01,Wunderground v.1.15,2013-04-18 04:01:00,
2013-04-18 00:05:00,64.7,59.8,30.13,North,10,0.0,1.0,84,0.00,,,0.01,Wunderground v.1.15,2013-04-18 04:05:00,
2013-04-18 00:09:00,64.8,59.5,30.13,North,10,0.0,1.0,83,0.00,,,0.01,Wunderground v.1.15,2013-04-18 04:09:00,
2013-04-18 00:11:00,64.8,59.5,30.13,North,10,0.0,1.0,83,0.00,,,0.01,Wunderground v.1.15,2013-04-18 04:11:00,
2013-04-18 00:13:00,64.8,59.5,30.13,North,10,0.0,1.0,83,0.00,,,0.01,Wunderground v.1.15,2013-04-18 04:13:00,
2013-04-18 00:19:00,64.7,59.8,30.13,North,10,0.0,1.0,84,0.00,,,0.01,Wunderground v.1.15,2013-04-18 04:19:00,
2013-04-18 00:25:00,64.7,59.8,30.12,North,10,0.0,1.0,84,0.00,,,0.01,Wunderground v.1.15,2013-04-18 04:25:00,
2013-04-18 00:31:00,64.6,59.7,30.12,North,10,0.0,1.0,84,0.00,,,0.01,Wunderground v.1.15,2013-04-18 04:31:00,
2013-04-18 00:37:00,64.4,59.1,30.11,North,10,0.0,1.0,83,0.00,,,0.01,Wunderground v.1.15,2013-04-18 04:37:00,
2013-04-18 00:45:00,64.2,58.9,30.12,North,10,0.0,1.0,83,0.00,,,0.01,Wunderground v.1.15,2013-04-18 04:45:00,
2013-04-18 00:51:00,64.0,58.7,30.12,North,10,0.0,1.0,83,0.00,,,0.01,Wunderground v.1.15,2013-04-18 04:51:00,
2013-04-18 00:57:00,63.7,58.8,30.12,North,10,0.0,1.0,84,0.00,,,0.01,Wunderground v.1.15,2013-04-18 04:57:00,
2013-04-18 01:03:00,63.4,58.5,30.12,North,10,0.0,1.0,84,0.00,,,0.01,Wunderground v.1.15,2013-04-18 05:03:00,
2013-04-18 01:08:00,63.2,58.6,30.12,North,10,0.0,1.0,85,0.00,,,0.01,Wunderground v.1.15,2013-04-18 05:08:00,
2013-04-18 01:15:00,63.1,58.5,30.12,North,10,0.0,1.0,85,0.00,,,0.01,Wunderground v.1.15,2013-04-18 05:15:00,
2013-04-18 01:21:00,63.0,58.7,30.12,North,10,0.0,1.0,86,0.00,,,0.01,Wunderground v.1.15,2013-04-18 05:21:00,
2013-04-18 01:27:00,63.0,58.7,30.12,North,10,0.0,1.0,86,0.00,,,0.01,Wunderground v.1.15,2013-04-18 05:27:00,
2013-04-18 01:33:00,63.0,58.7,30.12,North,10,0.0,1.0,86,0.00,,,0.01,Wunderground v.1.15,2013-04-18 05:33:00,
2013-04-18 01:39:00,63.0,58.7,30.12,North,10,0.0,1.0,86,0.00,,,0.01,Wunderground v.1.15,2013-04-18 05:39:00,
2013-04-18 01:45:00,63.1,58.5,30.12,North,10,0.0,1.0,85,0.00,,,0.01,Wunderground v.1.15,2013-04-18 05:45:00,
2013-04-18 01:51:00,63.1,58.5,30.12,North,10,0.0,1.0,85,0.00,,,0.01,Wunderground v.1.15,2013-04-18 05:51:00,
2013-04-18 01:57:00,63.1,58.8,30.12,North,10,0.0,1.0,86,0.00,,,0.01,Wunderground v.1.15,2013-04-18 05:57:00,
2013-04-18 02:03:00,63.1,58.8,30.12,North,10,0.0,1.0,86,0.00,,,0.01,Wunderground v.1.15,2013-04-18 06:03:00,
2013-04-18 02:08:00,63.1,58.5,30.12,North,10,0.0,1.0,85,0.00,,,0.01,Wunderground v.1.15,2013-04-18 06:08:00,
2013-04-18 02:15:00,63.1,58.5,30.12,North,10,0.0,1.0,85,0.00,,,0.01,Wunderground v.1.15,2013-04-18 06:15:00,
2013-04-18 02:20:00,63.1,58.5,30.12,North,10,0.0,1.0,85,0.00,,,0.01,Wunderground v.1.15,2013-04-18 06:20:00,
2013-04-18 02:26:00,63.1,58.5,30.12,North,10,0.0,1.0,85,0.00,,,0.01,Wunderground v.1.15,2013-04-18 06:26:00,
2013-04-18 02:32:00,63.1,58.8,30.12,North,10,0.0,1.0,86,0.00,,,0.01,Wunderground v.1.15,2013-04-18 06:32:00,
2013-04-18 02:38:00,63.0,58.4,30.12,North,10,0.0,1.0,85,0.00,,,0.01,Wunderground v.1.15,2013-04-18 06:38:00,
2013-04-18 02:44:00,63.0,58.4,30.11,North,10,0.0,1.0,85,0.00,,,0.01,Wunderground v.1.15,2013-04-18 06:44:00,
2013-04-18 02:50:00,62.9,58.3,30.11,North,10,0.0,1.0,85,0.00,,,0.01,Wunderground v.1.15,2013-04-18 06:50:00,
2013-04-18 02:56:00,62.9,58.0,30.11,North,10,0.0,1.0,84,0.00,,,0.01,Wunderground v.1.15,2013-04-18 06:56:00,
2013-04-18 03:04:00,62.8,57.9,30.11,North,10,0.0,1.0,84,0.00,,,0.01,Wunderground v.1.15,2013-04-18 07:04:00,
2013-04-18 03:10:00,62.8,57.9,30.11,North,10,0.0,1.0,84,0.00,,,0.01,Wunderground v.1.15,2013-04-18 07:10:00,
2013-04-18 03:18:00,62.7,58.1,30.11,North,10,0.0,1.0,85,0.00,,,0.01,Wunderground v.1.15,2013-04-18 07:18:00,
2013-04-18 03:24:00,62.7,58.1,30.10,North,10,0.0,1.0,85,0.00,,,0.01,Wunderground v.1.15,2013-04-18 07:24:00,
2013-04-18 03:30:00,62.6,58.0,30.10,North,10,0.0,1.0,85,0.00,,,0.01,Wunderground v.1.15,2013-04-18 07:30:00,
2013-04-18 03:36:00,62.5,57.9,30.10,North,10,0.0,1.0,85,0.00,,,0.01,Wunderground v.1.15,2013-04-18 07:36:00,
2013-04-18 03:44:00,62.4,58.2,30.10,North,10,0.0,1.0,86,0.00,,,0.01,Wunderground v.1.15,2013-04-18 07:44:00,
2013-04-18 03:50:00,62.3,57.7,30.10,North,10,0.0,1.0,85,0.00,,,0.01,Wunderground v.1.15,2013-04-18 07:50:00,
2013-04-18 03:56:00,62.2,58.0,30.10,North,10,0.0,1.0,86,0.00,,,0.01,Wunderground v.1.15,2013-04-18 07:56:00,
2013-04-18 04:04:00,62.1,57.9,30.10,North,10,0.0,1.0,86,0.00,,,0.01,Wunderground v.1.15,2013-04-18 08:04:00,
2013-04-18 04:10:00,62.1,57.5,30.10,North,10,0.0,1.0,85,0.00,,,0.01,Wunderground v.1.15,2013-04-18 08:10:00,
2013-04-18 04:16:00,62.0,57.8,30.10,North,10,0.0,1.0,86,0.00,,,0.01,Wunderground v.1.15,2013-04-18 08:16:00,
2013-04-18 04:22:00,61.9,57.7,30.10,North,10,0.0,1.0,86,0.00,,,0.01,Wunderground v.1.15,2013-04-18 08:22:00,
2013-04-18 04:28:00,61.8,57.6,30.10,North,10,0.0,1.0,86,0.00,,,0.01,Wunderground v.1.15,2013-04-18 08:28:00,
2013-04-18 04:34:00,61.8,57.6,30.09,North,10,0.0,1.0,86,0.00,,,0.01,Wunderground v.1.15,2013-04-18 08:34:00,
2013-04-18 04:40:00,61.7,57.5,30.10,North,10,0.0,1.0,86,0.00,,,0.01,Wunderground v.1.15,2013-04-18 08:40:00,
2013-04-18 04:46:00,61.7,57.5,30.10,North,10,0.0,1.0,86,0.00,,,0.01,Wunderground v.1.15,2013-04-18 08:46:00,
2013-04-18 04:52:00,61.6,57.7,30.10,North,10,0.0,1.0,87,0.00,,,0.01,Wunderground v.1.15,2013-04-18 08:52:00,
2013-04-18 04:58:00,61.6,57.7,30.10,North,10,0.0,1.0,87,0.00,,,0.01,Wunderground v.1.15,2013-04-18 08:58:00,
2013-04-18 05:04:00,61.5,57.6,30.10,NNE,12,0.0,1.0,87,0.00,,,0.01,Wunderground v.1.15,2013-04-18 09:04:00,
2013-04-18 05:10:00,61.4,57.5,30.09,NNE,12,0.0,1.0,87,0.00,,,0.01,Wunderground v.1.15,2013-04-18 09:10:00,
2013-04-18 05:16:00,61.3,57.7,30.09,NNE,12,0.0,1.0,88,0.00,,,0.01,Wunderground v.1.15,2013-04-18 09:16:00,
2013-04-18 05:22:00,61.2,57.6,30.09,NNE,12,0.0,1.0,88,0.00,,,0.01,Wunderground v.1.15,2013-04-18 09:22:00,
2013-04-18 05:28:00,61.0,57.7,30.10,NNE,12,0.0,1.0,89,0.00,,,0.01,Wunderground v.1.15,2013-04-18 09:28:00,
2013-04-18 05:34:00,60.9,57.6,30.10,NNE,12,0.0,1.0,89,0.00,,,0.01,Wunderground v.1.15,2013-04-18 09:34:00,
2013-04-18 05:40:00,60.8,57.5,30.10,NNE,12,0.0,1.0,89,0.00,,,0.01,Wunderground v.1.15,2013-04-18 09:40:00,
2013-04-18 05:48:00,60.7,57.7,30.10,NNE,12,0.0,1.0,90,0.00,,,0.01,Wunderground v.1.15,2013-04-18 09:48:00,
2013-04-18 05:54:00,60.5,57.6,30.10,NNE,12,0.0,1.0,90,0.00,,,0.01,Wunderground v.1.15,2013-04-18 09:54:00,
2013-04-18 06:00:00,60.4,57.5,30.10,NNE,12,0.0,2.0,90,0.00,,,0.01,Wunderground v.1.15,2013-04-18 10:00:00,
2013-04-18 06:06:00,60.3,57.7,30.10,NNE,12,0.0,2.0,91,0.00,,,0.01,Wunderground v.1.15,2013-04-18 10:06:00,
2013-04-18 06:12:00,60.2,57.6,30.10,NNE,12,0.0,2.0,91,0.00,,,0.01,Wunderground v.1.15,2013-04-18 10:12:00,
2013-04-18 06:18:00,60.1,57.5,30.10,NNE,12,0.0,2.0,91,0.00,,,0.01,Wunderground v.1.15,2013-04-18 10:18:00,
2013-04-18 06:24:00,60.1,57.8,30.10,NNE,12,0.0,2.0,92,0.00,,,0.01,Wunderground v.1.15,2013-04-18 10:24:00,
2013-04-18 06:30:00,60.0,57.7,30.10,NNE,12,0.0,2.0,92,0.00,,,0.01,Wunderground v.1.15,2013-04-18 10:30:00,
2013-04-18 06:36:00,60.0,57.7,30.11,NNE,12,0.0,2.0,92,0.00,,,0.01,Wunderground v.1.15,2013-04-18 10:36:00,
2013-04-18 06:42:00,59.9,57.6,30.11,NNE,12,0.0,2.0,92,0.00,,,0.01,Wunderground v.1.15,2013-04-18 10:42:00,
2013-04-18 06:48:00,59.8,57.5,30.11,NNE,12,0.0,2.0,92,0.00,,,0.01,Wunderground v.1.15,2013-04-18 10:48:00,
2013-04-18 06:54:00,59.8,57.5,30.11,NNE,12,0.0,2.0,92,0.00,,,0.01,Wunderground v.1.15,2013-04-18 10:54:00,
2013-04-18 07:00:00,59.8,57.5,30.11,NNE,12,0.0,0.0,92,0.00,,,0.01,Wunderground v.1.15,2013-04-18 11:00:00,
2013-04-18 07:06:00,59.8,57.5,30.11,North,11,0.0,0.0,92,0.00,,,0.01,Wunderground v.1.15,2013-04-18 11:06:00,
2013-04-18 07:12:00,59.7,57.4,30.12,North,11,0.0,0.0,92,0.00,,,0.01,Wunderground v.1.15,2013-04-18 11:12:00,
2013-04-18 07:18:00,59.7,57.7,30.12,North,11,0.0,0.0,93,0.00,,,0.02,Wunderground v.1.15,2013-04-18 11:18:00,
2013-04-18 07:24:00,59.7,57.7,30.12,North,11,0.0,0.0,93,0.00,,,0.02,Wunderground v.1.15,2013-04-18 11:24:00,
2013-04-18 07:30:00,59.7,57.7,30.12,North,11,0.0,0.0,93,0.00,,,0.02,Wunderground v.1.15,2013-04-18 11:30:00,
2013-04-18 07:36:00,59.7,57.7,30.12,North,11,0.0,0.0,93,0.00,,,0.02,Wunderground v.1.15,2013-04-18 11:36:00,
2013-04-18 07:42:00,59.6,57.6,30.12,North,11,0.0,0.0,93,0.00,,,0.02,Wunderground v.1.15,2013-04-18 11:42:00,
2013-04-18 07:48:00,59.6,57.6,30.13,North,11,0.0,0.0,93,0.00,,,0.02,Wunderground v.1.15,2013-04-18 11:48:00,
2013-04-18 07:54:00,59.6,57.6,30.12,North,11,0.0,0.0,93,0.00,,,0.02,Wunderground v.1.15,2013-04-18 11:54:00,
2013-04-18 08:00:00,59.6,57.6,30.12,North,11,0.0,0.0,93,0.00,,,0.02,Wunderground v.1.15,2013-04-18 12:00:00,
2013-04-18 08:06:00,59.6,57.6,30.12,North,11,0.0,0.0,93,0.00,,,0.02,Wunderground v.1.15,2013-04-18 12:06:00,
2013-04-18 08:12:00,59.6,57.6,30.12,North,11,0.0,0.0,93,0.00,,,0.02,Wunderground v.1.15,2013-04-18 12:12:00,
2013-04-18 08:18:00,59.7,58.0,30.12,North,11,0.0,0.0,94,0.00,,,0.02,Wunderground v.1.15,2013-04-18 12:18:00,
2013-04-18 08:24:00,59.7,58.0,30.13,North,11,0.0,0.0,94,0.00,,,0.02,Wunderground v.1.15,2013-04-18 12:24:00,
2013-04-18 08:30:00,59.7,57.7,30.13,North,11,0.0,0.0,93,0.00,,,0.03,Wunderground v.1.15,2013-04-18 12:30:00,
2013-04-18 08:36:00,59.7,58.0,30.13,North,11,0.0,0.0,94,0.00,,,0.03,Wunderground v.1.15,2013-04-18 12:36:00,
2013-04-18 08:42:00,59.7,58.0,30.13,North,11,0.0,0.0,94,0.00,,,0.03,Wunderground v.1.15,2013-04-18 12:42:00,
2013-04-18 08:48:00,59.8,58.1,30.13,North,11,0.0,0.0,94,0.00,,,0.03,Wunderground v.1.15,2013-04-18 12:48:00,
2013-04-18 08:54:00,59.7,58.0,30.13,North,11,0.0,0.0,94,0.00,,,0.03,Wunderground v.1.15,2013-04-18 12:54:00,
2013-04-18 09:00:00,59.7,58.0,30.13,North,11,0.0,1.0,94,0.00,,,0.03,Wunderground v.1.15,2013-04-18 13:00:00,
2013-04-18 09:06:00,59.7,58.0,30.14,North,11,0.0,1.0,94,0.00,,,0.03,Wunderground v.1.15,2013-04-18 13:06:00,
2013-04-18 09:12:00,59.8,58.1,30.14,North,11,0.0,1.0,94,0.00,,,0.03,Wunderground v.1.15,2013-04-18 13:12:00,
2013-04-18 09:18:00,59.8,58.1,30.14,North,11,0.0,1.0,94,0.00,,,0.03,Wunderground v.1.15,2013-04-18 13:18:00,
2013-04-18 09:24:00,59.9,58.2,30.14,North,11,0.0,1.0,94,0.00,,,0.03,Wunderground v.1.15,2013-04-18 13:24:00,
2013-04-18 09:30:00,59.9,58.2,30.14,North,11,0.0,1.0,94,0.00,,,0.03,Wunderground v.1.15,2013-04-18 13:30:00,
2013-04-18 09:36:00,60.0,58.3,30.14,North,11,0.0,1.0,94,0.00,,,0.04,Wunderground v.1.15,2013-04-18 13:36:00,
2013-04-18 09:42:00,59.9,58.2,30.14,North,11,0.0,1.0,94,0.00,,,0.04,Wunderground v.1.15,2013-04-18 13:42:00,
2013-04-18 09:48:00,60.0,58.3,30.14,North,11,0.0,1.0,94,0.06,,,0.05,Wunderground v.1.15,2013-04-18 13:48:00,
2013-04-18 09:54:00,60.0,58.3,30.14,North,11,0.0,1.0,94,0.07,,,0.00,Wunderground v.1.15,2013-04-18 13:54:00,
2013-04-18 10:00:00,60.2,58.5,30.14,North,11,0.0,0.0,94,0.06,,,0.00,Wunderground v.1.15,2013-04-18 14:00:00,
2013-04-18 10:06:00,60.3,58.6,30.13,North,11,0.0,0.0,94,0.04,,,0.00,Wunderground v.1.15,2013-04-18 14:06:00,
2013-04-18 10:12:00,60.4,58.7,30.14,North,11,0.0,0.0,94,0.00,,,0.00,Wunderground v.1.15,2013-04-18 14:12:00,
2013-04-18 10:18:00,60.5,58.8,30.13,North,11,0.0,0.0,94,0.00,,,0.00,Wunderground v.1.15,2013-04-18 14:18:00,
2013-04-18 10:24:00,60.5,58.8,30.13,North,11,0.0,0.0,94,0.00,,,0.00,Wunderground v.1.15,2013-04-18 14:24:00,
2013-04-18 10:30:00,60.6,58.9,30.13,North,11,0.0,0.0,94,0.00,,,0.00,Wunderground v.1.15,2013-04-18 14:30:00,
2013-04-18 10:38:00,60.7,59.0,30.13,North,11,0.0,0.0,94,0.00,,,0.00,Wunderground v.1.15,2013-04-18 14:38:00,
2013-04-18 10:44:00,60.7,59.0,30.13,North,11,0.0,0.0,94,0.00,,,0.00,Wunderground v.1.15,2013-04-18 14:44:00,
2013-04-18 10:49:00,60.8,59.1,30.14,NNW,328,0.0,0.0,94,0.00,,,0.00,Wunderground v.1.15,2013-04-18 14:49:00,
2013-04-18 10:56:00,60.8,59.1,30.13,NNW,328,0.0,0.0,94,0.00,,,0.00,Wunderground v.1.15,2013-04-18 14:56:00,
2013-04-18 11:02:00,60.9,59.2,30.14,NNW,328,0.0,0.0,94,0.00,,,0.00,Wunderground v.1.15,2013-04-18 15:02:00,
2013-04-18 11:08:00,60.9,59.2,30.13,East,90,0.0,0.0,94,0.00,,,0.00,Wunderground v.1.15,2013-04-18 15:08:00,
2013-04-18 11:14:00,61.1,59.4,30.13,East,90,0.0,0.0,94,0.00,,,0.00,Wunderground v.1.15,2013-04-18 15:14:00,
2013-04-18 11:20:00,61.0,59.0,30.13,East,90,0.0,0.0,93,0.00,,,0.00,Wunderground v.1.15,2013-04-18 15:20:00,
2013-04-18 11:26:00,61.2,59.5,30.13,East,90,0.0,0.0,94,0.00,,,0.00,Wunderground v.1.15,2013-04-18 15:26:00,
2013-04-18 11:32:00,61.3,59.6,30.13,East,90,0.0,0.0,94,0.00,,,0.00,Wunderground v.1.15,2013-04-18 15:32:00,
2013-04-18 11:38:00,61.4,59.7,30.13,East,90,0.0,0.0,94,0.00,,,0.00,Wunderground v.1.15,2013-04-18 15:38:00,
2013-04-18 11:44:00,61.4,59.7,30.12,East,90,0.0,0.0,94,0.00,,,0.00,Wunderground v.1.15,2013-04-18 15:44:00,
2013-04-18 11:50:00,61.6,59.9,30.12,East,90,0.0,0.0,94,0.00,,,0.00,Wunderground v.1.15,2013-04-18 15:50:00,
2013-04-18 11:56:00,61.8,59.8,30.12,East,90,0.0,0.0,93,0.00,,,0.00,Wunderground v.1.15,2013-04-18 15:56:00,
2013-04-18 12:02:00,61.9,59.9,30.12,East,90,0.0,1.0,93,0.00,,,0.00,Wunderground v.1.15,2013-04-18 16:02:00,
2013-04-18 12:08:00,62.0,59.6,30.12,East,90,0.0,1.0,92,0.00,,,0.00,Wunderground v.1.15,2013-04-18 16:08:00,
2013-04-18 12:14:00,62.2,59.8,30.12,WSW,250,0.0,1.0,92,0.00,,,0.00,Wunderground v.1.15,2013-04-18 16:14:00,
2013-04-18 12:20:00,62.4,60.3,30.11,WSW,256,0.0,1.0,93,0.00,,,0.00,Wunderground v.1.15,2013-04-18 16:20:00,
2013-04-18 12:26:00,62.5,60.4,30.11,WSW,256,0.0,1.0,93,0.00,,,0.00,Wunderground v.1.15,2013-04-18 16:26:00,
2013-04-18 12:32:00,62.4,60.0,30.11,ESE,119,0.0,1.0,92,0.00,,,0.00,Wunderground v.1.15,2013-04-18 16:32:00,
2013-04-18 12:38:00,62.5,60.1,30.10,ESE,119,0.0,1.0,92,0.00,,,0.00,Wunderground v.1.15,2013-04-18 16:38:00,
2013-04-18 12:44:00,62.8,60.4,30.11,SSW,201,0.0,1.0,92,0.00,,,0.00,Wunderground v.1.15,2013-04-18 16:44:00,
2013-04-18 12:50:00,63.0,60.9,30.10,SSW,201,0.0,1.0,93,0.00,,,0.00,Wunderground v.1.15,2013-04-18 16:50:00,
2013-04-18 12:56:00,63.2,60.8,30.10,SSW,203,0.0,1.0,92,0.00,,,0.00,Wunderground v.1.15,2013-04-18 16:56:00,
2013-04-18 13:02:00,63.5,61.1,30.10,SSW,203,0.0,2.0,92,0.00,,,0.00,Wunderground v.1.15,2013-04-18 17:02:00,
2013-04-18 13:08:00,63.7,61.0,30.10,West,260,1.0,4.0,91,0.00,,,0.00,Wunderground v.1.15,2013-04-18 17:08:00,
2013-04-18 13:14:00,64.0,61.3,30.09,West,275,1.0,4.0,91,0.00,,,0.00,Wunderground v.1.15,2013-04-18 17:14:00,
2013-04-18 13:22:00,64.7,62.0,30.09,SW,232,0.0,2.0,91,0.00,,,0.00,Wunderground v.1.15,2013-04-18 17:22:00,
2013-04-18 13:28:00,65.3,62.0,30.09,SW,232,0.0,2.0,89,0.00,,,0.00,Wunderground v.1.15,2013-04-18 17:28:00,
2013-04-18 13:34:00,65.4,62.1,30.09,West,266,0.0,2.0,89,0.00,,,0.00,Wunderground v.1.15,2013-04-18 17:34:00,
2013-04-18 13:40:00,65.8,62.8,30.09,West,266,1.0,2.0,90,0.00,,,0.00,Wunderground v.1.15,2013-04-18 17:40:00,
2013-04-18 13:46:00,66.1,62.4,30.09,SW,218,1.0,2.0,88,0.00,,,0.00,Wunderground v.1.15,2013-04-18 17:46:00,
2013-04-18 13:52:00,66.3,62.6,30.08,WSW,238,1.0,2.0,88,0.00,,,0.00,Wunderground v.1.15,2013-04-18 17:52:00,
2013-04-18 13:58:00,66.7,63.0,30.08,SW,235,1.0,6.0,88,0.00,,,0.00,Wunderground v.1.15,2013-04-18 17:58:00,
2013-04-18 14:04:00,67.0,62.7,30.08,South,172,2.0,6.0,86,0.00,,,0.00,Wunderground v.1.15,2013-04-18 18:04:00,
2013-04-18 14:10:00,67.5,63.8,30.07,WSW,242,1.0,6.0,88,0.00,,,0.00,Wunderground v.1.15,2013-04-18 18:10:00,
2013-04-18 14:16:00,68.2,63.9,30.07,West,262,1.0,6.0,86,0.00,,,0.00,Wunderground v.1.15,2013-04-18 18:16:00,
2013-04-18 14:22:00,68.3,63.3,30.07,West,262,1.0,6.0,84,0.00,,,0.00,Wunderground v.1.15,2013-04-18 18:22:00,
2013-04-18 14:28:00,69.2,63.8,30.06,WSW,239,1.0,1.0,83,0.00,,,0.00,Wunderground v.1.15,2013-04-18 18:28:00,
2013-04-18 14:34:00,70.0,63.9,30.06,West,259,1.0,6.0,81,0.00,,,0.00,Wunderground v.1.15,2013-04-18 18:34:00,
2013-04-18 14:42:00,71.0,64.9,30.05,West,267,1.0,6.0,81,0.00,,,0.00,Wunderground v.1.15,2013-04-18 18:42:00,
2013-04-18 14:48:00,71.6,64.7,30.04,South,174,1.0,1.0,79,0.00,,,0.00,Wunderground v.1.15,2013-04-18 18:48:00,
2013-04-18 14:54:00,71.9,63.9,30.04,South,181,1.0,6.0,76,0.00,,,0.00,Wunderground v.1.15,2013-04-18 18:54:00,
2013-04-18 15:00:00,72.1,63.7,30.03,NNE,31,1.0,8.0,75,0.00,,,0.00,Wunderground v.1.15,2013-04-18 19:00:00,
2013-04-18 15:06:00,72.3,63.9,30.03,SSE,155,0.0,8.0,75,0.00,,,0.00,Wunderground v.1.15,2013-04-18 19:06:00,
2013-04-18 15:12:00,72.2,63.8,30.03,SSE,155,0.0,8.0,75,0.00,,,0.00,Wunderground v.1.15,2013-04-18 19:12:00,
2013-04-18 15:18:00,72.4,64.4,30.03,SSE,155,0.0,8.0,76,0.00,,,0.00,Wunderground v.1.15,2013-04-18 19:18:00,
2013-04-18 15:24:00,73.0,63.8,30.02,SW,225,0.0,8.0,73,0.00,,,0.00,Wunderground v.1.15,2013-04-18 19:24:00,
2013-04-18 15:30:00,73.7,63.7,30.02,SSW,207,1.0,2.0,71,0.00,,,0.00,Wunderground v.1.15,2013-04-18 19:30:00,
2013-04-18 15:36:00,74.2,64.6,30.02,North,5,1.0,8.0,72,0.00,,,0.00,Wunderground v.1.15,2013-04-18 19:36:00,
2013-04-18 15:42:00,74.5,63.2,30.01,NE,37,2.0,8.0,68,0.00,,,0.00,Wunderground v.1.15,2013-04-18 19:42:00,
2013-04-18 15:48:00,75.1,64.6,30.01,SSW,194,1.0,8.0,70,0.00,,,0.00,Wunderground v.1.15,2013-04-18 19:48:00,
2013-04-18 15:54:00,75.3,63.6,30.00,West,269,1.0,8.0,67,0.00,,,0.00,Wunderground v.1.15,2013-04-18 19:54:00,
2013-04-18 16:00:00,75.3,64.4,30.00,WNW,282,1.0,7.0,69,0.00,,,0.00,Wunderground v.1.15,2013-04-18 20:00:00,
2013-04-18 16:06:00,75.6,64.3,30.00,WNW,286,0.0,7.0,68,0.00,,,0.00,Wunderground v.1.15,2013-04-18 20:06:00,
2013-04-18 16:12:00,76.1,63.5,29.99,NE,52,1.0,7.0,65,0.00,,,0.00,Wunderground v.1.15,2013-04-18 20:12:00,
2013-04-18 16:18:00,76.5,63.4,29.99,South,186,2.0,2.0,64,0.00,,,0.00,Wunderground v.1.15,2013-04-18 20:18:00,
2013-04-18 16:24:00,76.8,62.8,29.99,ESE,115,1.0,7.0,62,0.00,,,0.00,Wunderground v.1.15,2013-04-18 20:24:00,
2013-04-18 16:30:00,77.1,62.1,29.98,East,98,2.0,4.0,60,0.00,,,0.00,Wunderground v.1.15,2013-04-18 20:30:00,
2013-04-18 16:36:00,77.6,62.1,29.99,SSW,198,3.0,7.0,59,0.00,,,0.00,Wunderground v.1.15,2013-04-18 20:36:00,
2013-04-18 16:42:00,77.9,61.4,29.98,SSE,157,2.0,9.0,57,0.00,,,0.00,Wunderground v.1.15,2013-04-18 20:42:00,
2013-04-18 16:48:00,78.0,60.0,29.99,SSE,159,2.0,7.0,54,0.00,,,0.00,Wunderground v.1.15,2013-04-18 20:48:00,
2013-04-18 16:54:00,77.4,61.0,29.99,West,271,2.0,7.0,57,0.00,,,0.00,Wunderground v.1.15,2013-04-18 20:54:00,
2013-04-18 17:00:00,77.2,59.8,29.98,East,84,1.0,13.0,55,0.00,,,0.00,Wunderground v.1.15,2013-04-18 21:00:00,
2013-04-18 17:06:00,77.1,59.2,29.98,NNE,18,2.0,13.0,54,0.00,,,0.00,Wunderground v.1.15,2013-04-18 21:06:00,
2013-04-18 17:12:00,77.1,59.2,29.98,SSW,207,3.0,13.0,54,0.00,,,0.00,Wunderground v.1.15,2013-04-18 21:12:00,
2013-04-18 17:18:00,77.1,58.6,29.98,SSE,166,2.0,13.0,53,0.00,,,0.00,Wunderground v.1.15,2013-04-18 21:18:00,
2013-04-18 17:24:00,77.2,58.7,29.98,South,190,2.0,13.0,53,0.00,,,0.00,Wunderground v.1.15,2013-04-18 21:24:00,
2013-04-18 17:30:00,77.1,59.7,29.98,WNW,288,2.0,13.0,55,0.00,,,0.00,Wunderground v.1.15,2013-04-18 21:30:00,
2013-04-18 17:36:00,77.0,58.0,29.98,SSE,148,2.0,13.0,52,0.00,,,0.00,Wunderground v.1.15,2013-04-18 21:36:00,
2013-04-18 17:42:00,77.1,58.1,29.98,South,189,2.0,13.0,52,0.00,,,0.00,Wunderground v.1.15,2013-04-18 21:42:00,
2013-04-18 17:48:00,77.4,58.4,29.97,East,93,2.0,2.0,52,0.00,,,0.00,Wunderground v.1.15,2013-04-18 21:48:00,
2013-04-18 17:54:00,77.6,58.0,29.97,South,188,2.0,13.0,51,0.00,,,0.00,Wunderground v.1.15,2013-04-18 21:54:00,
2013-04-18 18:00:00,77.6,58.0,29.97,NW,321,2.0,12.0,51,0.00,,,0.00,Wunderground v.1.15,2013-04-18 22:00:00,
2013-04-18 18:06:00,77.6,57.5,29.97,South,175,2.0,12.0,50,0.00,,,0.00,Wunderground v.1.15,2013-04-18 22:06:00,
2013-04-18 18:12:00,77.5,57.9,29.97,SSW,196,2.0,12.0,51,0.00,,,0.00,Wunderground v.1.15,2013-04-18 22:12:00,
2013-04-18 18:18:00,77.5,58.5,29.97,NNE,22,2.0,2.0,52,0.00,,,0.00,Wunderground v.1.15,2013-04-18 22:18:00,
2013-04-18 18:24:00,77.4,57.3,29.96,SSW,192,1.0,12.0,50,0.00,,,0.00,Wunderground v.1.15,2013-04-18 22:24:00,
2013-04-18 18:30:00,77.1,57.6,29.97,South,189,2.0,4.0,51,0.00,,,0.00,Wunderground v.1.15,2013-04-18 22:30:00,
2013-04-18 18:36:00,76.9,57.4,29.96,South,188,2.0,12.0,51,0.00,,,0.00,Wunderground v.1.15,2013-04-18 22:36:00,
2013-04-18 18:42:00,76.8,56.8,29.96,SSE,155,2.0,12.0,50,0.00,,,0.00,Wunderground v.1.15,2013-04-18 22:42:00,
2013-04-18 18:48:00,76.5,57.0,29.96,SW,227,2.0,12.0,51,0.00,,,0.00,Wunderground v.1.15,2013-04-18 22:48:00,
2013-04-18 18:54:00,76.0,57.1,29.96,SSE,159,2.0,12.0,52,0.00,,,0.00,Wunderground v.1.15,2013-04-18 22:54:00,
2013-04-18 19:00:00,75.6,57.8,29.96,South,175,1.0,10.0,54,0.00,,,0.00,Wunderground v.1.15,2013-04-18 23:00:00,
2013-04-18 19:06:00,75.1,57.3,29.96,East,94,0.0,10.0,54,0.00,,,0.00,Wunderground v.1.15,2013-04-18 23:06:00,
2013-04-18 19:12:00,74.5,57.3,29.96,South,177,1.0,10.0,55,0.00,,,0.00,Wunderground v.1.15,2013-04-18 23:12:00,
2013-04-18 19:18:00,74.0,58.3,29.95,West,270,0.0,10.0,58,0.00,,,0.00,Wunderground v.1.15,2013-04-18 23:18:00,
2013-04-18 19:24:00,73.5,58.3,29.96,South,184,1.0,10.0,59,0.00,,,0.00,Wunderground v.1.15,2013-04-18 23:24:00,
2013-04-18 19:30:00,73.0,58.3,29.96,SW,224,0.0,10.0,60,0.00,,,0.00,Wunderground v.1.15,2013-04-18 23:30:00,
2013-04-18 19:36:00,72.5,59.2,29.96,SW,224,0.0,10.0,63,0.00,,,0.00,Wunderground v.1.15,2013-04-18 23:36:00,
2013-04-18 19:42:00,72.0,58.3,29.97,NE,54,0.0,10.0,62,0.00,,,0.00,Wunderground v.1.15,2013-04-18 23:42:00,
2013-04-18 19:48:00,71.5,58.2,29.96,SSE,156,1.0,1.0,63,0.00,,,0.00,Wunderground v.1.15,2013-04-18 23:48:00,
2013-04-18 19:54:00,71.2,58.4,29.97,SSW,203,0.0,10.0,64,0.00,,,0.00,Wunderground v.1.15,2013-04-18 23:54:00,
2013-04-18 20:00:00,70.8,58.0,29.96,SSE,161,0.0,7.0,64,0.00,,,0.00,Wunderground v.1.15,2013-04-19 00:00:00,
2013-04-18 20:06:00,70.4,57.6,29.96,NNW,348,0.0,7.0,64,0.00,,,0.00,Wunderground v.1.15,2013-04-19 00:06:00,
2013-04-18 20:12:00,69.9,57.6,29.96,NNW,348,0.0,7.0,65,0.00,,,0.00,Wunderground v.1.15,2013-04-19 00:12:00,
2013-04-18 20:18:00,69.4,58.0,29.96,NNW,348,0.0,7.0,67,0.00,,,0.00,Wunderground v.1.15,2013-04-19 00:18:00,
2013-04-18 20:24:00,68.9,57.9,29.96,NNW,348,0.0,7.0,68,0.00,,,0.00,Wunderground v.1.15,2013-04-19 00:24:00,
2013-04-18 20:30:00,68.4,57.4,29.95,NNW,348,0.0,7.0,68,0.00,,,0.00,Wunderground v.1.15,2013-04-19 00:30:00,
2013-04-18 20:36:00,68.1,57.5,29.95,NNW,348,0.0,7.0,69,0.00,,,0.00,Wunderground v.1.15,2013-04-19 00:36:00,
2013-04-18 20:42:00,67.6,57.1,29.95,NNW,348,0.0,7.0,69,0.00,,,0.00,Wunderground v.1.15,2013-04-19 00:42:00,
2013-04-18 20:48:00,67.2,57.1,29.96,NNW,348,0.0,7.0,70,0.00,,,0.00,Wunderground v.1.15,2013-04-19 00:48:00,
2013-04-18 20:54:00,66.9,57.2,29.96,NNW,348,0.0,7.0,71,0.00,,,0.00,Wunderground v.1.15,2013-04-19 00:54:00,
2013-04-18 21:00:00,66.5,57.2,29.96,NNW,348,0.0,4.0,72,0.00,,,0.00,Wunderground v.1.15,2013-04-19 01:00:00,
2013-04-18 21:06:00,66.2,57.3,29.97,NNW,348,0.0,4.0,73,0.00,,,0.00,Wunderground v.1.15,2013-04-19 01:06:00,
2013-04-18 21:12:00,65.8,56.9,29.96,NNW,348,0.0,4.0,73,0.00,,,0.00,Wunderground v.1.15,2013-04-19 01:12:00,
2013-04-18 21:18:00,65.4,56.9,29.96,NNW,348,0.0,4.0,74,0.00,,,0.00,Wunderground v.1.15,2013-04-19 01:18:00,
2013-04-18 21:26:00,65.0,56.9,29.96,NNW,348,0.0,4.0,75,0.00,,,0.00,Wunderground v.1.15,2013-04-19 01:26:00,
2013-04-18 21:32:00,64.7,57.0,29.96,NNW,348,0.0,4.0,76,0.00,,,0.00,Wunderground v.1.15,2013-04-19 01:32:00,
2013-04-18 21:38:00,64.3,56.6,29.97,NNW,348,0.0,4.0,76,0.00,,,0.00,Wunderground v.1.15,2013-04-19 01:38:00,
2013-04-18 21:44:00,63.9,56.9,29.96,NNW,348,0.0,4.0,78,0.00,,,0.00,Wunderground v.1.15,2013-04-19 01:44:00,
2013-04-18 21:50:00,63.7,57.1,29.96,NNE,13,0.0,4.0,79,0.00,,,0.00,Wunderground v.1.15,2013-04-19 01:50:00,
2013-04-18 21:56:00,63.4,56.8,29.96,NNW,348,0.0,4.0,79,0.00,,,0.00,Wunderground v.1.15,2013-04-19 01:56:00,
2013-04-18 22:02:00,63.2,56.9,29.96,NNE,26,0.0,4.0,80,0.00,,,0.00,Wunderground v.1.15,2013-04-19 02:02:00,
2013-04-18 22:08:00,63.1,57.2,29.96,NNE,30,0.0,4.0,81,0.00,,,0.00,Wunderground v.1.15,2013-04-19 02:08:00,
2013-04-18 22:14:00,63.1,57.2,29.95,South,184,0.0,4.0,81,0.00,,,0.00,Wunderground v.1.15,2013-04-19 02:14:00,
2013-04-18 22:20:00,63.5,57.6,29.96,East,90,0.0,4.0,81,0.00,,,0.00,Wunderground v.1.15,2013-04-19 02:20:00,
2013-04-18 22:26:00,63.7,57.4,29.96,East,90,0.0,4.0,80,0.00,,,0.00,Wunderground v.1.15,2013-04-19 02:26:00,
2013-04-18 22:32:00,63.9,58.0,29.96,East,90,0.0,4.0,81,0.00,,,0.00,Wunderground v.1.15,2013-04-19 02:32:00,
2013-04-18 22:38:00,63.9,57.6,29.95,East,91,0.0,4.0,80,0.00,,,0.00,Wunderground v.1.15,2013-04-19 02:38:00,
2013-04-18 22:44:00,63.9,58.3,29.95,ENE,63,0.0,4.0,82,0.00,,,0.00,Wunderground v.1.15,2013-04-19 02:44:00,
2013-04-18 22:50:00,64.1,58.5,29.95,ENE,63,0.0,4.0,82,0.00,,,0.00,Wunderground v.1.15,2013-04-19 02:50:00,
2013-04-18 22:56:00,64.4,58.4,29.95,SSE,159,0.0,4.0,81,0.00,,,0.00,Wunderground v.1.15,2013-04-19 02:56:00,
2013-04-18 23:02:00,64.9,58.9,29.95,NE,44,0.0,6.0,81,0.00,,,0.00,Wunderground v.1.15,2013-04-19 03:02:00,
2013-04-18 23:10:00,65.9,59.2,29.95,WSW,242,1.0,6.0,79,0.00,,,0.00,Wunderground v.1.15,2013-04-19 03:10:00,
2013-04-18 23:16:00,66.6,59.2,29.94,SSE,167,1.0,6.0,77,0.00,,,0.00,Wunderground v.1.15,2013-04-19 03:16:00,
2013-04-18 23:22:00,67.1,58.9,29.93,West,278,1.0,6.0,75,0.00,,,0.00,Wunderground v.1.15,2013-04-19 03:22:00,
2013-04-18 23:28:00,67.2,59.0,29.94,SSE,155,0.0,6.0,75,0.00,,,0.00,Wunderground v.1.15,2013-04-19 03:28:00,
2013-04-18 23:34:00,67.4,59.2,29.94,South,182,0.0,6.0,75,0.00,,,0.00,Wunderground v.1.15,2013-04-19 03:34:00,
2013-04-18 23:40:00,67.5,58.5,29.93,SSE,158,0.0,6.0,73,0.00,,,0.00,Wunderground v.1.15,2013-04-19 03:40:00,
2013-04-18 23:46:00,67.7,58.7,29.93,West,279,1.0,6.0,73,0.00,,,0.00,Wunderground v.1.15,2013-04-19 03:46:00,
2013-04-18 23:56:00,67.7,58.3,29.92,NE,43,1.0,6.0,72,0.00,,,0.00,Wunderground v.1.15,2013-04-19 03:56:00,